Location: Honolulu
(21.3069°N, 157.8583°W)
Time: 08:17:29
(UTC-10:00)

Transit 4A - Pass Details

Date: 17 September 2025
Orbit: 869 x 972 km, 66.8° (Epoch: 12 December)

Event Time Altitude Azimuth Distance (km) Brightness Sun altitude
Rises 00:59:02 0° 341° (NNW) 3,460 - -65.3°
Reaches altitude 10° 01:01:31 10° 343° (NNW) 2,528 - -65.1°
Maximum altitude 01:07:20 71° 68° (ENE) 938 - -64.5°
Drops below altitude 10° 01:13:17 10° 151° (SSE) 2,581 - -63.9°
Sets 01:15:50 0° 154° (SSE) 3,536 - -63.6°
